Location: Hormuz
(27.0871°N, 56.4580°E)
Time: 16:22:47
(UTC+04:30)

Envisat - Pass Details

Date: 21 June 2021
Orbit: 764 x 766 km, 98.2° (Epoch: 26 July)

Event Time Altitude Azimuth Distance (km) Brightness Sun altitude
Rises 04:44:20 0° 41° (NE) 3,228 7.9 -13.4°
Reaches altitude 10° 04:48:11 10° 70° (ENE) 2,298 6.8 -12.7°
Maximum altitude 04:50:11 12° 94° (E) 2,139 6.1 -12.4°
Drops below altitude 10° 04:52:12 10° 118° (ESE) 2,293 5.8 -12.0°
Sets 04:56:00 0° 147° (SSE) 3,214 6.2 -11.3°
